Location: Lac Lasalle
(46.0398°N, 74.1576°W)
Time: 20:31:05
(UTC-05:00)

SEEDS - Pass Details

Date: 14 December 2019
Orbit: 586 x 603 km, 97.5° (Epoch: 23 January)

Event Time Altitude Azimuth Distance (km) Brightness Sun altitude
Rises 05:56:26 0° 12° (NNE) 2,855 ? -15.6°
Reaches altitude 10° 05:58:36 10° 12° (NNE) 1,950 ? -15.2°
Maximum altitude 06:02:51 85° 283° (WNW) 610 ? -14.5°
Drops below altitude 10° 06:07:05 10° 196° (SSW) 1,941 ? -13.8°
Sets 06:09:14 0° 196° (SSW) 2,841 ? -13.5°
